Location: *
(51.1248°S, 108.4023°W)
Time: 01:52:04
(UTC+00:00)

Cosmos 1544 - Pass Details

Date: 25 October 2021
Orbit: 467 x 486 km, 82.5° (Epoch: 03 December)

Event Time Altitude Azimuth Distance (km) Brightness Sun altitude
Exits shadow 07:58:36 32° 113° (ESE) 852 4.6 -25.3°
Drops below altitude 10° 08:01:17 10° 154° (SSE) 1,680 6.8 -25.2°
Sets 08:03:30 0° 162° (SSE) 2,572 8.1 -25.1°
